Time,TemperatureF,DewpointF,PressureIn,WindDirection,WindDirectionDegrees,WindSpeedMPH,WindSpeedGustMPH,Humidity,HourlyPrecipIn,Conditions,Clouds,dailyrainin,SoftwareType,DateUTC
2013-04-28 00:00:00,55.5,52.6,29.97,SSE,149,6.0,6.0,90,0.00,,,0.00,Wunderground v.1.15,2013-04-28 04:00:00,
2013-04-28 00:01:00,55.5,52.6,29.97,ESE,121,6.0,6.0,90,0.00,,,0.00,Wunderground v.1.15,2013-04-28 04:01:00,
2013-04-28 00:02:00,55.5,52.6,29.98,SE,130,5.0,7.0,90,0.00,,,0.00,Wunderground v.1.15,2013-04-28 04:02:00,
2013-04-28 00:04:00,55.4,52.5,29.97,SE,126,5.0,7.0,90,0.00,,,0.00,Wunderground v.1.15,2013-04-28 04:04:00,
2013-04-28 00:06:00,55.4,52.5,29.97,SSE,147,5.0,7.0,90,0.00,,,0.00,Wunderground v.1.15,2013-04-28 04:06:00,
2013-04-28 00:12:00,55.3,52.7,29.97,SE,133,5.0,6.0,91,0.00,,,0.01,Wunderground v.1.15,2013-04-28 04:12:00,
2013-04-28 00:13:00,55.3,52.7,29.97,SE,132,5.0,6.0,91,0.00,,,0.01,Wunderground v.1.15,2013-04-28 04:13:00,
2013-04-28 00:19:00,55.1,52.5,29.97,SE,139,5.0,7.0,91,0.00,,,0.01,Wunderground v.1.15,2013-04-28 04:19:00,
2013-04-28 00:25:00,55.0,52.7,29.96,ESE,119,5.0,7.0,92,0.00,,,0.01,Wunderground v.1.15,2013-04-28 04:25:00,
2013-04-28 00:31:00,54.9,52.6,29.96,SE,124,5.0,6.0,92,0.00,,,0.01,Wunderground v.1.15,2013-04-28 04:31:00,
2013-04-28 00:36:00,54.8,52.5,29.96,SE,135,5.0,8.0,92,0.00,,,0.01,Wunderground v.1.15,2013-04-28 04:36:00,
2013-04-28 00:42:00,54.8,52.8,29.95,SE,134,6.0,7.0,93,0.00,,,0.01,Wunderground v.1.15,2013-04-28 04:42:00,
2013-04-28 00:48:00,54.7,52.7,29.95,SSE,149,5.0,7.0,93,0.00,,,0.01,Wunderground v.1.15,2013-04-28 04:48:00,
2013-04-28 00:54:00,54.8,52.8,29.95,SE,128,5.0,6.0,93,0.00,,,0.01,Wunderground v.1.15,2013-04-28 04:54:00,
2013-04-28 01:00:00,54.8,52.8,29.95,SE,137,4.0,6.0,93,0.00,,,0.01,Wunderground v.1.15,2013-04-28 05:00:00,
2013-04-28 01:06:00,54.7,52.7,29.95,SE,141,4.0,9.0,93,0.00,,,0.01,Wunderground v.1.15,2013-04-28 05:06:00,
2013-04-28 01:12:00,54.8,52.8,29.95,SE,137,5.0,6.0,93,0.00,,,0.01,Wunderground v.1.15,2013-04-28 05:12:00,
2013-04-28 01:18:00,54.7,52.7,29.95,SSE,147,5.0,6.0,93,0.00,,,0.01,Wunderground v.1.15,2013-04-28 05:18:00,
2013-04-28 01:24:00,54.7,52.7,29.94,SE,144,5.0,6.0,93,0.00,,,0.01,Wunderground v.1.15,2013-04-28 05:24:00,
2013-04-28 01:30:00,54.8,52.8,29.94,SE,126,4.0,4.0,93,0.00,,,0.01,Wunderground v.1.15,2013-04-28 05:30:00,
2013-04-28 01:36:00,54.7,52.7,29.94,SE,135,3.0,6.0,93,0.00,,,0.01,Wunderground v.1.15,2013-04-28 05:36:00,
2013-04-28 01:42:00,54.7,52.7,29.93,SE,129,3.0,6.0,93,0.00,,,0.01,Wunderground v.1.15,2013-04-28 05:42:00,
2013-04-28 01:48:00,54.7,52.7,29.93,SE,129,4.0,7.0,93,0.00,,,0.01,Wunderground v.1.15,2013-04-28 05:48:00,
2013-04-28 01:53:00,54.7,52.7,29.92,East,99,4.0,6.0,93,0.00,,,0.01,Wunderground v.1.15,2013-04-28 05:53:00,
2013-04-28 01:59:00,54.7,52.7,29.92,ESE,123,3.0,6.0,93,0.00,,,0.01,Wunderground v.1.15,2013-04-28 05:59:00,
2013-04-28 02:05:00,54.7,53.0,29.92,ESE,110,3.0,6.0,94,0.00,,,0.01,Wunderground v.1.15,2013-04-28 06:05:00,
2013-04-28 02:11:00,54.7,53.0,29.91,East,97,3.0,6.0,94,0.00,,,0.01,Wunderground v.1.15,2013-04-28 06:11:00,
2013-04-28 02:16:00,54.7,53.0,29.91,SSE,147,3.0,6.0,94,0.00,,,0.01,Wunderground v.1.15,2013-04-28 06:16:00,
2013-04-28 02:22:00,54.7,53.0,29.91,ESE,103,2.0,6.0,94,0.00,,,0.01,Wunderground v.1.15,2013-04-28 06:22:00,
2013-04-28 02:28:00,54.7,53.0,29.91,ESE,122,2.0,6.0,94,0.00,,,0.01,Wunderground v.1.15,2013-04-28 06:28:00,
2013-04-28 02:34:00,54.7,53.0,29.90,SE,133,2.0,6.0,94,0.00,,,0.01,Wunderground v.1.15,2013-04-28 06:34:00,
2013-04-28 02:40:00,54.7,53.0,29.91,SSE,150,4.0,6.0,94,0.00,,,0.01,Wunderground v.1.15,2013-04-28 06:40:00,
2013-04-28 02:46:00,54.7,53.0,29.90,SE,134,4.0,6.0,94,0.00,,,0.01,Wunderground v.1.15,2013-04-28 06:46:00,
2013-04-28 02:52:00,54.7,53.0,29.90,ESE,119,3.0,6.0,94,0.00,,,0.01,Wunderground v.1.15,2013-04-28 06:52:00,
2013-04-28 02:57:00,54.7,53.0,29.90,SE,141,4.0,6.0,94,0.00,,,0.01,Wunderground v.1.15,2013-04-28 06:57:00,
2013-04-28 03:03:00,54.7,53.0,29.89,SSE,150,3.0,6.0,94,0.00,,,0.01,Wunderground v.1.15,2013-04-28 07:03:00,
2013-04-28 03:09:00,54.7,53.0,29.90,SSE,147,4.0,6.0,94,0.00,,,0.01,Wunderground v.1.15,2013-04-28 07:09:00,
2013-04-28 03:15:00,54.6,52.9,29.90,SE,143,4.0,7.0,94,0.00,,,0.01,Wunderground v.1.15,2013-04-28 07:15:00,
2013-04-28 03:21:00,54.7,53.0,29.90,SE,139,4.0,6.0,94,0.00,,,0.01,Wunderground v.1.15,2013-04-28 07:21:00,
2013-04-28 03:27:00,54.7,53.0,29.90,SE,135,4.0,7.0,94,0.00,,,0.01,Wunderground v.1.15,2013-04-28 07:27:00,
2013-04-28 03:33:00,54.7,53.0,29.90,SE,142,4.0,6.0,94,0.00,,,0.01,Wunderground v.1.15,2013-04-28 07:33:00,
2013-04-28 03:39:00,54.7,53.0,29.90,SE,141,4.0,8.0,94,0.00,,,0.01,Wunderground v.1.15,2013-04-28 07:39:00,
2013-04-28 03:45:00,54.6,52.9,29.89,SSE,149,4.0,6.0,94,0.00,,,0.01,Wunderground v.1.15,2013-04-28 07:45:00,
2013-04-28 03:51:00,54.6,52.9,29.89,SE,139,5.0,8.0,94,0.00,,,0.01,Wunderground v.1.15,2013-04-28 07:51:00,
2013-04-28 03:57:00,54.6,52.9,29.89,SE,139,6.0,8.0,94,0.00,,,0.01,Wunderground v.1.15,2013-04-28 07:57:00,
2013-04-28 04:02:00,54.6,52.9,29.89,SE,139,6.0,8.0,94,0.00,,,0.01,Wunderground v.1.15,2013-04-28 08:02:00,
2013-04-28 04:08:00,54.6,52.9,29.88,SSE,149,6.0,8.0,94,0.00,,,0.01,Wunderground v.1.15,2013-04-28 08:08:00,
2013-04-28 04:14:00,54.6,52.9,29.88,SE,140,5.0,6.0,94,0.00,,,0.01,Wunderground v.1.15,2013-04-28 08:14:00,
2013-04-28 04:20:00,54.6,52.9,29.88,SE,138,4.0,6.0,94,0.00,,,0.01,Wunderground v.1.15,2013-04-28 08:20:00,
2013-04-28 04:26:00,54.7,53.0,29.88,SE,145,5.0,8.0,94,0.00,,,0.01,Wunderground v.1.15,2013-04-28 08:26:00,
2013-04-28 04:32:00,54.7,53.0,29.88,SE,141,6.0,8.0,94,0.00,,,0.01,Wunderground v.1.15,2013-04-28 08:32:00,
2013-04-28 04:38:00,54.7,53.0,29.88,ESE,118,6.0,8.0,94,0.00,,,0.01,Wunderground v.1.15,2013-04-28 08:38:00,
2013-04-28 04:44:00,54.7,53.0,29.88,SE,134,6.0,6.0,94,0.00,,,0.01,Wunderground v.1.15,2013-04-28 08:44:00,
2013-04-28 04:50:00,54.7,53.0,29.88,SE,143,5.0,6.0,94,0.00,,,0.01,Wunderground v.1.15,2013-04-28 08:50:00,
2013-04-28 04:56:00,54.7,53.0,29.88,SE,132,4.0,6.0,94,0.00,,,0.01,Wunderground v.1.15,2013-04-28 08:56:00,
2013-04-28 05:02:00,54.7,53.0,29.88,SE,144,5.0,8.0,94,0.00,,,0.01,Wunderground v.1.15,2013-04-28 09:02:00,
2013-04-28 05:08:00,54.7,53.0,29.88,SSE,150,6.0,8.0,94,0.00,,,0.01,Wunderground v.1.15,2013-04-28 09:08:00,
2013-04-28 05:14:00,54.7,53.0,29.88,SE,138,6.0,11.0,94,0.00,,,0.01,Wunderground v.1.15,2013-04-28 09:14:00,
2013-04-28 05:20:00,54.8,53.1,29.87,SE,143,5.0,6.0,94,0.00,,,0.01,Wunderground v.1.15,2013-04-28 09:20:00,
2013-04-28 05:26:00,54.8,53.1,29.87,SE,142,5.0,6.0,94,0.00,,,0.01,Wunderground v.1.15,2013-04-28 09:26:00,
2013-04-28 05:32:00,54.8,53.1,29.87,SE,135,5.0,6.0,94,0.00,,,0.01,Wunderground v.1.15,2013-04-28 09:32:00,
2013-04-28 05:38:00,54.8,53.1,29.86,SE,139,4.0,6.0,94,0.00,,,0.01,Wunderground v.1.15,2013-04-28 09:38:00,
2013-04-28 05:43:00,54.8,53.1,29.86,SE,141,4.0,6.0,94,0.00,,,0.01,Wunderground v.1.15,2013-04-28 09:43:00,
2013-04-28 05:49:00,54.8,53.1,29.86,SE,125,3.0,6.0,94,0.00,,,0.01,Wunderground v.1.15,2013-04-28 09:49:00,
2013-04-28 05:55:00,54.8,53.1,29.86,SE,146,3.0,6.0,94,0.00,,,0.01,Wunderground v.1.15,2013-04-28 09:55:00,
2013-04-28 06:01:00,54.8,53.1,29.86,SE,126,4.0,6.0,94,0.00,,,0.02,Wunderground v.1.15,2013-04-28 10:01:00,
2013-04-28 06:06:00,54.8,53.1,29.85,ESE,121,4.0,6.0,94,0.19,,,0.04,Wunderground v.1.15,2013-04-28 10:06:00,
2013-04-28 06:12:00,54.8,53.4,29.85,SE,141,3.0,4.0,95,0.08,,,0.04,Wunderground v.1.15,2013-04-28 10:12:00,
2013-04-28 06:18:00,54.7,53.3,29.85,SE,129,2.0,4.0,95,0.04,,,0.04,Wunderground v.1.15,2013-04-28 10:18:00,
2013-04-28 06:24:00,54.7,53.3,29.85,SE,129,1.0,2.0,95,0.00,,,0.04,Wunderground v.1.15,2013-04-28 10:24:00,
2013-04-28 06:30:00,54.7,53.3,29.85,ESE,110,2.0,2.0,95,0.00,,,0.04,Wunderground v.1.15,2013-04-28 10:30:00,
2013-04-28 06:36:00,54.7,53.3,29.85,SE,133,2.0,11.0,95,0.00,,,0.04,Wunderground v.1.15,2013-04-28 10:36:00,
2013-04-28 06:42:00,54.7,53.3,29.85,SE,135,2.0,11.0,95,0.00,,,0.04,Wunderground v.1.15,2013-04-28 10:42:00,
2013-04-28 06:48:00,54.7,53.3,29.85,ESE,116,2.0,11.0,95,0.00,,,0.04,Wunderground v.1.15,2013-04-28 10:48:00,
2013-04-28 06:54:00,54.7,53.3,29.85,SE,145,2.0,11.0,95,0.00,,,0.04,Wunderground v.1.15,2013-04-28 10:54:00,
2013-04-28 07:00:00,54.7,53.3,29.85,SE,129,2.0,2.0,95,0.00,,,0.04,Wunderground v.1.15,2013-04-28 11:00:00,
2013-04-28 07:06:00,54.7,53.3,29.86,SE,129,1.0,11.0,95,0.00,,,0.04,Wunderground v.1.15,2013-04-28 11:06:00,
2013-04-28 07:12:00,54.7,53.3,29.86,SE,129,0.0,11.0,95,0.12,,,0.06,Wunderground v.1.15,2013-04-28 11:12:00,
2013-04-28 07:18:00,54.7,53.3,29.86,SE,129,0.0,11.0,95,0.24,,,0.08,Wunderground v.1.15,2013-04-28 11:18:00,
2013-04-28 07:23:00,54.7,53.3,29.86,NNE,25,1.0,11.0,95,0.27,,,0.10,Wunderground v.1.15,2013-04-28 11:23:00,
2013-04-28 07:29:00,54.7,53.3,29.86,NNE,25,2.0,11.0,95,0.07,,,0.10,Wunderground v.1.15,2013-04-28 11:29:00,
2013-04-28 07:35:00,54.6,53.2,29.86,NNE,25,2.0,11.0,95,0.06,,,0.11,Wunderground v.1.15,2013-04-28 11:35:00,
2013-04-28 07:41:00,54.6,53.2,29.86,NNE,25,1.0,11.0,95,0.07,,,0.12,Wunderground v.1.15,2013-04-28 11:41:00,
2013-04-28 07:47:00,54.6,53.5,29.86,ENE,69,1.0,11.0,96,0.07,,,0.12,Wunderground v.1.15,2013-04-28 11:47:00,
2013-04-28 07:53:00,54.6,53.5,29.86,East,82,1.0,11.0,96,0.07,,,0.13,Wunderground v.1.15,2013-04-28 11:53:00,
2013-04-28 07:59:00,54.7,53.6,29.86,ESE,123,1.0,11.0,96,0.06,,,0.14,Wunderground v.1.15,2013-04-28 11:59:00,
2013-04-28 08:05:00,54.9,53.8,29.86,SE,137,2.0,11.0,96,0.06,,,0.14,Wunderground v.1.15,2013-04-28 12:05:00,
2013-04-28 08:11:00,55.0,53.9,29.86,SSE,152,3.0,4.0,96,0.18,,,0.16,Wunderground v.1.15,2013-04-28 12:11:00,
2013-04-28 08:17:00,55.1,54.0,29.86,SE,143,3.0,11.0,96,0.09,,,0.16,Wunderground v.1.15,2013-04-28 12:17:00,
2013-04-28 08:23:00,55.1,54.0,29.86,SE,143,3.0,11.0,96,0.24,,,0.18,Wunderground v.1.15,2013-04-28 12:23:00,
2013-04-28 08:29:00,55.1,54.0,29.86,SSE,148,3.0,11.0,96,0.14,,,0.19,Wunderground v.1.15,2013-04-28 12:29:00,
2013-04-28 08:35:00,55.2,54.1,29.86,SSE,147,3.0,11.0,96,0.06,,,0.19,Wunderground v.1.15,2013-04-28 12:35:00,
2013-04-28 08:41:00,55.2,54.1,29.86,SSE,153,4.0,6.0,96,0.04,,,0.19,Wunderground v.1.15,2013-04-28 12:41:00,
2013-04-28 08:46:00,55.3,54.2,29.86,SSE,156,4.0,11.0,96,0.00,,,0.19,Wunderground v.1.15,2013-04-28 12:46:00,
2013-04-28 08:52:00,55.3,54.2,29.86,SSE,155,3.0,11.0,96,0.00,,,0.19,Wunderground v.1.15,2013-04-28 12:52:00,
2013-04-28 08:58:00,55.4,54.3,29.86,SSE,156,3.0,11.0,96,0.00,,,0.19,Wunderground v.1.15,2013-04-28 12:58:00,
2013-04-28 09:04:00,55.5,54.4,29.86,SSE,152,3.0,11.0,96,0.00,,,0.19,Wunderground v.1.15,2013-04-28 13:04:00,
2013-04-28 09:10:00,55.5,54.4,29.86,SSE,154,3.0,3.0,96,0.00,,,0.19,Wunderground v.1.15,2013-04-28 13:10:00,
2013-04-28 09:16:00,55.6,54.5,29.85,SE,132,3.0,11.0,96,0.00,,,0.19,Wunderground v.1.15,2013-04-28 13:16:00,
2013-04-28 09:22:00,55.7,54.6,29.85,SSE,147,3.0,11.0,96,0.00,,,0.19,Wunderground v.1.15,2013-04-28 13:22:00,
2013-04-28 09:28:00,55.7,54.6,29.85,SSE,149,3.0,11.0,96,0.00,,,0.19,Wunderground v.1.15,2013-04-28 13:28:00,
2013-04-28 09:34:00,55.8,54.7,29.85,SE,146,3.0,11.0,96,0.00,,,0.19,Wunderground v.1.15,2013-04-28 13:34:00,
2013-04-28 09:40:00,56.0,54.9,29.85,South,177,3.0,11.0,96,0.00,,,0.19,Wunderground v.1.15,2013-04-28 13:40:00,
2013-04-28 09:46:00,56.3,55.2,29.85,SSE,152,3.0,11.0,96,0.00,,,0.19,Wunderground v.1.15,2013-04-28 13:46:00,
2013-04-28 09:52:00,56.4,55.3,29.85,SSE,161,3.0,11.0,96,0.00,,,0.19,Wunderground v.1.15,2013-04-28 13:52:00,
2013-04-28 09:58:00,56.6,55.5,29.85,South,173,4.0,11.0,96,0.00,,,0.19,Wunderground v.1.15,2013-04-28 13:58:00,
2013-04-28 10:03:00,56.7,55.6,29.85,South,170,5.0,11.0,96,0.00,,,0.19,Wunderground v.1.15,2013-04-28 14:03:00,
2013-04-28 10:09:00,56.9,55.8,29.85,South,183,4.0,11.0,96,0.00,,,0.19,Wunderground v.1.15,2013-04-28 14:09:00,
2013-04-28 10:15:00,57.0,55.9,29.85,SSW,197,4.0,11.0,96,0.00,,,0.19,Wunderground v.1.15,2013-04-28 14:15:00,
2013-04-28 10:21:00,57.2,56.1,29.85,SSW,202,4.0,11.0,96,0.00,,,0.19,Wunderground v.1.15,2013-04-28 14:21:00,
2013-04-28 10:27:00,57.3,55.9,29.86,SSW,204,5.0,11.0,95,0.00,,,0.19,Wunderground v.1.15,2013-04-28 14:27:00,
2013-04-28 10:33:00,57.4,56.0,29.86,SSW,213,4.0,11.0,95,0.00,,,0.19,Wunderground v.1.15,2013-04-28 14:33:00,
2013-04-28 10:39:00,57.5,56.1,29.86,South,187,5.0,11.0,95,0.00,,,0.19,Wunderground v.1.15,2013-04-28 14:39:00,
2013-04-28 10:45:00,57.7,56.3,29.86,South,189,5.0,11.0,95,0.00,,,0.19,Wunderground v.1.15,2013-04-28 14:45:00,
2013-04-28 10:51:00,57.8,56.1,29.86,SW,218,5.0,11.0,94,0.00,,,0.19,Wunderground v.1.15,2013-04-28 14:51:00,
2013-04-28 10:57:00,58.1,56.4,29.86,South,190,6.0,11.0,94,0.00,,,0.19,Wunderground v.1.15,2013-04-28 14:57:00,
2013-04-28 11:03:00,58.2,56.5,29.86,SSW,199,5.0,11.0,94,0.00,,,0.19,Wunderground v.1.15,2013-04-28 15:03:00,
2013-04-28 11:09:00,58.4,56.4,29.86,SW,216,5.0,11.0,93,0.00,,,0.19,Wunderground v.1.15,2013-04-28 15:09:00,
2013-04-28 11:15:00,58.5,56.5,29.86,SSW,193,5.0,11.0,93,0.00,,,0.19,Wunderground v.1.15,2013-04-28 15:15:00,
2013-04-28 11:21:00,58.6,56.6,29.86,SSW,208,4.0,6.0,93,0.00,,,0.19,Wunderground v.1.15,2013-04-28 15:21:00,
2013-04-28 11:27:00,58.8,56.8,29.86,South,191,3.0,11.0,93,0.00,,,0.19,Wunderground v.1.15,2013-04-28 15:27:00,
2013-04-28 11:33:00,58.9,56.6,29.86,SSW,194,3.0,11.0,92,0.00,,,0.19,Wunderground v.1.15,2013-04-28 15:33:00,
2013-04-28 11:39:00,59.1,56.8,29.86,SSW,210,3.0,11.0,92,0.00,,,0.19,Wunderground v.1.15,2013-04-28 15:39:00,
2013-04-28 11:44:00,59.2,56.6,29.86,SSW,199,4.0,11.0,91,0.00,,,0.19,Wunderground v.1.15,2013-04-28 15:44:00,
2013-04-28 11:49:00,59.3,56.7,29.86,SSW,204,5.0,11.0,91,0.00,,,0.19,Wunderground v.1.15,2013-04-28 15:49:00,
2013-04-28 11:55:00,59.3,56.7,29.86,SW,222,5.0,11.0,91,0.00,,,0.19,Wunderground v.1.15,2013-04-28 15:55:00,
2013-04-28 12:01:00,59.4,57.1,29.86,West,265,3.0,11.0,92,0.00,,,0.19,Wunderground v.1.15,2013-04-28 16:01:00,
2013-04-28 12:07:00,59.1,56.8,29.86,WNW,286,3.0,11.0,92,0.00,,,0.19,Wunderground v.1.15,2013-04-28 16:07:00,
2013-04-28 12:12:00,58.9,56.6,29.86,WSW,254,2.0,11.0,92,0.00,,,0.19,Wunderground v.1.15,2013-04-28 16:12:00,
2013-04-28 12:18:00,58.9,56.6,29.86,SW,229,1.0,11.0,92,0.00,,,0.19,Wunderground v.1.15,2013-04-28 16:18:00,
2013-04-28 12:24:00,58.9,56.6,29.86,SW,216,3.0,11.0,92,0.00,,,0.19,Wunderground v.1.15,2013-04-28 16:24:00,
2013-04-28 12:30:00,59.0,56.7,29.86,SW,225,3.0,11.0,92,0.00,,,0.19,Wunderground v.1.15,2013-04-28 16:30:00,
2013-04-28 12:36:00,59.1,56.2,29.85,SW,214,5.0,11.0,90,0.00,,,0.19,Wunderground v.1.15,2013-04-28 16:36:00,
2013-04-28 12:42:00,59.3,56.1,29.85,SSW,206,7.0,11.0,89,0.00,,,0.19,Wunderground v.1.15,2013-04-28 16:42:00,
2013-04-28 12:48:00,59.5,56.3,29.85,SSW,201,7.0,11.0,89,0.00,,,0.19,Wunderground v.1.15,2013-04-28 16:48:00,
2013-04-28 12:53:00,59.8,56.6,29.85,SSW,198,6.0,11.0,89,0.00,,,0.19,Wunderground v.1.15,2013-04-28 16:53:00,
2013-04-28 12:59:00,60.2,56.9,29.85,South,185,6.0,11.0,89,0.00,,,0.19,Wunderground v.1.15,2013-04-28 16:59:00,
2013-04-28 13:05:00,60.5,56.9,29.85,SW,218,5.0,11.0,88,0.00,,,0.19,Wunderground v.1.15,2013-04-28 17:05:00,
2013-04-28 13:11:00,60.5,56.9,29.85,WSW,249,6.0,11.0,88,0.00,,,0.19,Wunderground v.1.15,2013-04-28 17:11:00,
2013-04-28 13:17:00,60.8,56.6,29.85,SW,235,8.0,13.0,86,0.00,,,0.19,Wunderground v.1.15,2013-04-28 17:17:00,
2013-04-28 13:23:00,61.4,56.2,29.85,SW,225,8.0,13.0,83,0.00,,,0.19,Wunderground v.1.15,2013-04-28 17:23:00,
2013-04-28 13:29:00,61.6,56.0,29.85,SW,225,9.0,13.0,82,0.00,,,0.19,Wunderground v.1.15,2013-04-28 17:29:00,
2013-04-28 13:35:00,61.5,56.3,29.85,SW,231,8.0,11.0,83,0.00,,,0.19,Wunderground v.1.15,2013-04-28 17:35:00,
2013-04-28 13:41:00,60.7,55.2,29.85,SW,218,9.0,14.0,82,0.00,,,0.19,Wunderground v.1.15,2013-04-28 17:41:00,
2013-04-28 13:47:00,60.2,55.3,29.85,SW,230,10.0,14.0,84,0.00,,,0.19,Wunderground v.1.15,2013-04-28 17:47:00,
2013-04-28 13:53:00,60.2,55.3,29.86,SW,218,10.0,11.0,84,0.00,,,0.19,Wunderground v.1.15,2013-04-28 17:53:00,
2013-04-28 13:59:00,59.8,55.3,29.86,SSW,206,9.0,13.0,85,0.00,,,0.19,Wunderground v.1.15,2013-04-28 17:59:00,
2013-04-28 14:05:00,59.4,55.2,29.86,NNW,336,8.0,11.0,86,0.00,,,0.19,Wunderground v.1.15,2013-04-28 18:05:00,
2013-04-28 14:11:00,59.6,55.7,29.86,SSW,210,7.0,13.0,87,0.00,,,0.19,Wunderground v.1.15,2013-04-28 18:11:00,
2013-04-28 14:17:00,59.5,55.3,29.86,WSW,239,10.0,16.0,86,0.00,,,0.19,Wunderground v.1.15,2013-04-28 18:17:00,
2013-04-28 14:23:00,60.0,55.5,29.85,SW,224,13.0,14.0,85,0.00,,,0.19,Wunderground v.1.15,2013-04-28 18:23:00,
2013-04-28 14:28:00,60.5,55.6,29.85,SSW,213,11.0,15.0,84,0.00,,,0.19,Wunderground v.1.15,2013-04-28 18:28:00,
2013-04-28 14:34:00,59.9,55.7,29.86,WSW,242,11.0,14.0,86,0.00,,,0.19,Wunderground v.1.15,2013-04-28 18:34:00,
2013-04-28 14:40:00,59.8,55.3,29.86,SSW,205,11.0,13.0,85,0.00,,,0.19,Wunderground v.1.15,2013-04-28 18:40:00,
2013-04-28 14:46:00,59.7,56.1,29.86,South,189,12.0,18.0,88,0.00,,,0.19,Wunderground v.1.15,2013-04-28 18:46:00,
2013-04-28 14:52:00,59.9,55.7,29.86,West,280,8.0,11.0,86,0.00,,,0.19,Wunderground v.1.15,2013-04-28 18:52:00,
2013-04-28 14:58:00,59.9,56.0,29.86,NW,312,7.0,11.0,87,0.00,,,0.19,Wunderground v.1.15,2013-04-28 18:58:00,
2013-04-28 15:04:00,59.6,55.7,29.86,WSW,237,8.0,14.0,87,0.00,,,0.19,Wunderground v.1.15,2013-04-28 19:04:00,
2013-04-28 15:10:00,59.7,55.5,29.86,SW,221,9.0,11.0,86,0.00,,,0.19,Wunderground v.1.15,2013-04-28 19:10:00,
2013-04-28 15:16:00,59.4,55.2,29.86,SSW,213,12.0,15.0,86,0.00,,,0.19,Wunderground v.1.15,2013-04-28 19:16:00,
2013-04-28 15:22:00,59.3,55.1,29.86,SW,218,12.0,12.0,86,0.00,,,0.19,Wunderground v.1.15,2013-04-28 19:22:00,
2013-04-28 15:28:00,59.2,55.3,29.86,WSW,238,10.0,12.0,87,0.00,,,0.19,Wunderground v.1.15,2013-04-28 19:28:00,
2013-04-28 15:34:00,58.9,55.0,29.86,SSW,199,9.0,11.0,87,0.00,,,0.19,Wunderground v.1.15,2013-04-28 19:34:00,
2013-04-28 15:40:00,58.5,54.6,29.86,SW,215,9.0,11.0,87,0.00,,,0.19,Wunderground v.1.15,2013-04-28 19:40:00,
2013-04-28 15:46:00,58.3,54.8,29.86,SW,226,9.0,12.0,88,0.00,,,0.19,Wunderground v.1.15,2013-04-28 19:46:00,
2013-04-28 15:51:00,58.1,54.9,29.86,SSW,212,9.0,12.0,89,0.00,,,0.19,Wunderground v.1.15,2013-04-28 19:51:00,
2013-04-28 15:57:00,57.8,54.9,29.86,WSW,244,8.0,12.0,90,0.00,,,0.19,Wunderground v.1.15,2013-04-28 19:57:00,
2013-04-28 16:03:00,57.6,54.7,29.86,SSE,164,8.0,11.0,90,0.00,,,0.19,Wunderground v.1.15,2013-04-28 20:03:00,
2013-04-28 16:09:00,57.6,54.7,29.86,SW,214,7.0,11.0,90,0.00,,,0.19,Wunderground v.1.15,2013-04-28 20:09:00,
2013-04-28 16:15:00,57.9,55.3,29.86,WSW,252,6.0,11.0,91,0.00,,,0.19,Wunderground v.1.15,2013-04-28 20:15:00,
2013-04-28 16:21:00,58.2,55.3,29.86,SSW,198,7.0,11.0,90,0.00,,,0.19,Wunderground v.1.15,2013-04-28 20:21:00,
2013-04-28 16:27:00,58.7,55.2,29.86,SW,226,9.0,14.0,88,0.00,,,0.19,Wunderground v.1.15,2013-04-28 20:27:00,
2013-04-28 16:33:00,59.0,55.1,29.86,SW,226,9.0,11.0,87,0.00,,,0.19,Wunderground v.1.15,2013-04-28 20:33:00,
2013-04-28 16:39:00,58.7,55.2,29.85,SW,218,9.0,11.0,88,0.00,,,0.19,Wunderground v.1.15,2013-04-28 20:39:00,
2013-04-28 16:45:00,58.4,54.9,29.85,WSW,237,8.0,12.0,88,0.00,,,0.19,Wunderground v.1.15,2013-04-28 20:45:00,
2013-04-28 16:51:00,57.8,54.6,29.85,South,191,8.0,11.0,89,0.00,,,0.19,Wunderground v.1.15,2013-04-28 20:51:00,
2013-04-28 16:57:00,57.5,54.3,29.86,SW,219,9.0,12.0,89,0.00,,,0.19,Wunderground v.1.15,2013-04-28 20:57:00,
2013-04-28 17:03:00,57.5,54.6,29.86,SSW,201,9.0,11.0,90,0.00,,,0.19,Wunderground v.1.15,2013-04-28 21:03:00,
2013-04-28 17:08:00,57.3,54.4,29.86,WSW,249,8.0,11.0,90,0.00,,,0.19,Wunderground v.1.15,2013-04-28 21:08:00,
2013-04-28 17:14:00,57.2,54.3,29.86,SW,223,9.0,11.0,90,0.00,,,0.19,Wunderground v.1.15,2013-04-28 21:14:00,
2013-04-28 17:20:00,57.4,54.8,29.86,SW,231,7.0,11.0,91,0.00,,,0.19,Wunderground v.1.15,2013-04-28 21:20:00,
2013-04-28 17:26:00,57.2,54.6,29.86,SSW,203,7.0,11.0,91,0.00,,,0.19,Wunderground v.1.15,2013-04-28 21:26:00,
2013-04-28 17:32:00,57.1,54.5,29.86,SW,219,7.0,11.0,91,0.00,,,0.19,Wunderground v.1.15,2013-04-28 21:32:00,
2013-04-28 17:38:00,56.9,54.3,29.86,WSW,238,7.0,11.0,91,0.00,,,0.19,Wunderground v.1.15,2013-04-28 21:38:00,
2013-04-28 17:44:00,56.8,54.5,29.86,West,260,7.0,11.0,92,0.00,,,0.19,Wunderground v.1.15,2013-04-28 21:44:00,
2013-04-28 17:50:00,56.8,54.5,29.86,SW,216,6.0,11.0,92,0.00,,,0.19,Wunderground v.1.15,2013-04-28 21:50:00,
2013-04-28 17:56:00,56.7,54.4,29.86,SSW,204,6.0,12.0,92,0.00,,,0.19,Wunderground v.1.15,2013-04-28 21:56:00,
2013-04-28 18:01:00,56.7,54.7,29.86,South,190,6.0,11.0,93,0.00,,,0.19,Wunderground v.1.15,2013-04-28 22:01:00,
2013-04-28 18:07:00,56.7,54.7,29.86,SW,223,5.0,11.0,93,0.00,,,0.19,Wunderground v.1.15,2013-04-28 22:07:00,
2013-04-28 18:13:00,56.7,54.7,29.86,SW,217,4.0,11.0,93,0.00,,,0.19,Wunderground v.1.15,2013-04-28 22:13:00,
2013-04-28 18:19:00,56.6,54.6,29.86,SSW,212,5.0,11.0,93,0.00,,,0.19,Wunderground v.1.15,2013-04-28 22:19:00,
2013-04-28 18:25:00,56.6,54.6,29.86,SW,228,6.0,11.0,93,0.00,,,0.19,Wunderground v.1.15,2013-04-28 22:25:00,
2013-04-28 18:31:00,56.5,54.8,29.86,SW,232,6.0,11.0,94,0.00,,,0.19,Wunderground v.1.15,2013-04-28 22:31:00,
2013-04-28 18:36:00,56.5,54.8,29.86,SW,220,6.0,11.0,94,0.00,,,0.19,Wunderground v.1.15,2013-04-28 22:36:00,
2013-04-28 18:42:00,56.7,55.0,29.86,SSW,197,6.0,11.0,94,0.00,,,0.19,Wunderground v.1.15,2013-04-28 22:42:00,
2013-04-28 18:48:00,56.7,55.0,29.86,WSW,243,6.0,11.0,94,0.00,,,0.19,Wunderground v.1.15,2013-04-28 22:48:00,
2013-04-28 18:54:00,56.7,55.0,29.86,SW,216,6.0,11.0,94,0.00,,,0.19,Wunderground v.1.15,2013-04-28 22:54:00,
2013-04-28 19:00:00,56.7,55.0,29.86,SW,226,7.0,11.0,94,0.00,,,0.19,Wunderground v.1.15,2013-04-28 23:00:00,
2013-04-28 19:06:00,56.7,55.0,29.86,SSW,211,7.0,11.0,94,0.00,,,0.19,Wunderground v.1.15,2013-04-28 23:06:00,
2013-04-28 19:12:00,56.8,55.1,29.86,SSW,205,6.0,11.0,94,0.00,,,0.19,Wunderground v.1.15,2013-04-28 23:12:00,
2013-04-28 19:18:00,56.7,55.0,29.86,SW,214,6.0,11.0,94,0.00,,,0.19,Wunderground v.1.15,2013-04-28 23:18:00,
2013-04-28 19:24:00,56.8,55.1,29.86,SW,221,6.0,11.0,94,0.00,,,0.19,Wunderground v.1.15,2013-04-28 23:24:00,
2013-04-28 19:30:00,56.8,55.1,29.86,SSW,206,5.0,5.0,94,0.00,,,0.19,Wunderground v.1.15,2013-04-28 23:30:00,
2013-04-28 19:36:00,56.7,55.0,29.86,SSW,210,5.0,11.0,94,0.00,,,0.19,Wunderground v.1.15,2013-04-28 23:36:00,
2013-04-28 19:42:00,56.7,55.0,29.86,SW,231,6.0,11.0,94,0.00,,,0.19,Wunderground v.1.15,2013-04-28 23:42:00,
2013-04-28 19:48:00,56.7,55.0,29.86,SW,231,6.0,11.0,94,0.00,,,0.19,Wunderground v.1.15,2013-04-28 23:48:00,
2013-04-28 19:53:00,56.7,55.0,29.86,West,280,4.0,11.0,94,0.00,,,0.19,Wunderground v.1.15,2013-04-28 23:53:00,
2013-04-28 19:59:00,56.7,55.0,29.86,West,281,3.0,11.0,94,0.00,,,0.19,Wunderground v.1.15,2013-04-28 23:59:00,
2013-04-28 20:04:00,56.7,55.0,29.87,West,276,2.0,11.0,94,0.00,,,0.19,Wunderground v.1.15,2013-04-29 00:04:00,
2013-04-28 20:10:00,56.6,55.2,29.87,WNW,286,3.0,11.0,95,0.00,,,0.19,Wunderground v.1.15,2013-04-29 00:10:00,
2013-04-28 20:16:00,56.6,55.2,29.87,WSW,247,2.0,11.0,95,0.00,,,0.19,Wunderground v.1.15,2013-04-29 00:16:00,
2013-04-28 20:22:00,56.6,55.2,29.87,WSW,255,1.0,11.0,95,0.00,,,0.19,Wunderground v.1.15,2013-04-29 00:22:00,
2013-04-28 20:28:00,56.6,55.2,29.87,WSW,258,1.0,11.0,95,0.00,,,0.19,Wunderground v.1.15,2013-04-29 00:28:00,
2013-04-28 20:34:00,56.6,55.2,29.86,SW,218,2.0,11.0,95,0.00,,,0.19,Wunderground v.1.15,2013-04-29 00:34:00,
2013-04-28 20:40:00,56.5,55.1,29.87,West,277,2.0,2.0,95,0.00,,,0.19,Wunderground v.1.15,2013-04-29 00:40:00,
2013-04-28 20:46:00,56.5,55.1,29.87,SW,229,2.0,11.0,95,0.00,,,0.19,Wunderground v.1.15,2013-04-29 00:46:00,
2013-04-28 20:51:00,56.5,55.1,29.87,SSW,204,2.0,11.0,95,0.00,,,0.19,Wunderground v.1.15,2013-04-29 00:51:00,
2013-04-28 20:57:00,56.5,55.1,29.87,WNW,297,3.0,11.0,95,0.00,,,0.19,Wunderground v.1.15,2013-04-29 00:57:00,
2013-04-28 21:02:00,56.5,55.1,29.87,WNW,301,2.0,11.0,95,0.00,,,0.19,Wunderground v.1.15,2013-04-29 01:02:00,
2013-04-28 21:08:00,56.5,55.4,29.87,WNW,297,2.0,11.0,96,0.00,,,0.19,Wunderground v.1.15,2013-04-29 01:08:00,
2013-04-28 21:14:00,56.4,55.0,29.88,SW,224,2.0,11.0,95,0.00,,,0.19,Wunderground v.1.15,2013-04-29 01:14:00,
2013-04-28 21:20:00,56.4,55.0,29.88,West,268,2.0,2.0,95,0.00,,,0.19,Wunderground v.1.15,2013-04-29 01:20:00,
2013-04-28 21:26:00,56.4,55.0,29.88,WSW,256,2.0,11.0,95,0.00,,,0.19,Wunderground v.1.15,2013-04-29 01:26:00,
2013-04-28 21:32:00,56.4,55.0,29.88,SW,233,3.0,11.0,95,0.00,,,0.19,Wunderground v.1.15,2013-04-29 01:32:00,
2013-04-28 21:38:00,56.4,55.0,29.89,WSW,254,2.0,11.0,95,0.00,,,0.19,Wunderground v.1.15,2013-04-29 01:38:00,
2013-04-28 21:44:00,56.4,55.0,29.89,SW,224,2.0,11.0,95,0.00,,,0.19,Wunderground v.1.15,2013-04-29 01:44:00,
2013-04-28 21:50:00,56.4,55.0,29.89,West,274,3.0,3.0,95,0.00,,,0.19,Wunderground v.1.15,2013-04-29 01:50:00,
2013-04-28 21:56:00,56.4,55.0,29.89,NW,310,2.0,11.0,95,0.00,,,0.19,Wunderground v.1.15,2013-04-29 01:56:00,
2013-04-28 22:02:00,56.4,55.0,29.89,SSW,212,2.0,11.0,95,0.00,,,0.19,Wunderground v.1.15,2013-04-29 02:02:00,
2013-04-28 22:08:00,56.4,55.0,29.90,WSW,240,4.0,11.0,95,0.00,,,0.19,Wunderground v.1.15,2013-04-29 02:08:00,
2013-04-28 22:14:00,56.5,55.1,29.90,WSW,248,3.0,11.0,95,0.00,,,0.19,Wunderground v.1.15,2013-04-29 02:14:00,
2013-04-28 22:19:00,56.5,55.1,29.90,WSW,239,4.0,11.0,95,0.00,,,0.19,Wunderground v.1.15,2013-04-29 02:19:00,
2013-04-28 22:25:00,56.4,55.0,29.90,WSW,246,5.0,11.0,95,0.00,,,0.19,Wunderground v.1.15,2013-04-29 02:25:00,
2013-04-28 22:30:00,56.5,55.1,29.90,SW,217,5.0,5.0,95,0.00,,,0.19,Wunderground v.1.15,2013-04-29 02:30:00,
2013-04-28 22:36:00,56.4,55.0,29.90,WSW,244,4.0,11.0,95,0.00,,,0.19,Wunderground v.1.15,2013-04-29 02:36:00,
2013-04-28 22:42:00,56.4,55.0,29.90,SW,235,4.0,11.0,95,0.00,,,0.19,Wunderground v.1.15,2013-04-29 02:42:00,
2013-04-28 22:48:00,56.4,55.0,29.91,SW,228,6.0,11.0,95,0.00,,,0.19,Wunderground v.1.15,2013-04-29 02:48:00,
2013-04-28 22:54:00,56.4,55.0,29.91,West,264,5.0,11.0,95,0.00,,,0.19,Wunderground v.1.15,2013-04-29 02:54:00,
2013-04-28 23:00:00,56.4,55.0,29.91,SW,225,5.0,5.0,95,0.00,,,0.19,Wunderground v.1.15,2013-04-29 03:00:00,
2013-04-28 23:06:00,56.4,55.0,29.91,SW,232,4.0,11.0,95,0.00,,,0.19,Wunderground v.1.15,2013-04-29 03:06:00,
2013-04-28 23:12:00,56.3,54.9,29.91,SW,231,3.0,11.0,95,0.00,,,0.19,Wunderground v.1.15,2013-04-29 03:12:00,
2013-04-28 23:18:00,56.3,54.9,29.91,WSW,237,4.0,11.0,95,0.00,,,0.19,Wunderground v.1.15,2013-04-29 03:18:00,
2013-04-28 23:24:00,56.3,54.9,29.91,SW,232,4.0,11.0,95,0.00,,,0.19,Wunderground v.1.15,2013-04-29 03:24:00,
2013-04-28 23:30:00,56.2,54.8,29.91,WSW,247,5.0,5.0,95,0.00,,,0.19,Wunderground v.1.15,2013-04-29 03:30:00,
2013-04-28 23:36:00,56.2,54.8,29.91,SSW,202,5.0,11.0,95,0.00,,,0.19,Wunderground v.1.15,2013-04-29 03:36:00,
2013-04-28 23:42:00,56.2,54.8,29.91,SSW,213,5.0,11.0,95,0.00,,,0.19,Wunderground v.1.15,2013-04-29 03:42:00,
2013-04-28 23:47:00,56.1,54.7,29.91,SW,222,5.0,11.0,95,0.00,,,0.19,Wunderground v.1.15,2013-04-29 03:47:00,
2013-04-28 23:53:00,56.0,54.6,29.91,SW,222,5.0,11.0,95,0.00,,,0.19,Wunderground v.1.15,2013-04-29 03:53:00,
2013-04-28 23:59:00,56.0,54.6,29.91,SW,235,5.0,11.0,95,0.00,,,0.19,Wunderground v.1.15,2013-04-29 03:59:00,